This is the latest recevied weather packets stored in our database for station/object KB1ZFK. If no packets are shown the sender has not sent any weather packets the latest 10 day(s).
| Time | Temp. | Humidity | Pressure | Rain* | Wind** | Luminosity | Snow |
|---|---|---|---|---|---|---|---|
| 1777552592 | 6.67° C | 98% | 1007.6 hPa | 0 mm | - | 92 W/m² | - |
| 1777552289 | 6.67° C | 98% | 1007.7 hPa | 0 mm | - | 48 W/m² | - |
| 1777551986 | 6.11° C | 98% | 1007.8 hPa | 0 mm | - | 58 W/m² | - |
| 1777551683 | 6.11° C | 98% | 1007.8 hPa | 0 mm | - | 66 W/m² | - |
| 1777551381 | 6.11° C | 98% | 1007.8 hPa | 1.27 mm | - | 59 W/m² | - |
| 1777551077 | 6.11° C | 98% | 1007.8 hPa | 1.27 mm | - | 37 W/m² | - |
| 1777550774 | 6.11° C | 98% | 1007.8 hPa | 1.78 mm | - | 31 W/m² | - |
| 1777550470 | 6.11° C | 98% | 1007.7 hPa | 1.78 mm | - | 36 W/m² | - |
| 1777550167 | 6.11° C | 98% | 1007.7 hPa | 0 mm | - | 21 W/m² | - |
| 1777549863 | 6.11° C | 98% | 1007.7 hPa | 0 mm | - | 21 W/m² | - |
| 1777549559 | 6.11° C | 98% | 1007.7 hPa | 0 mm | - | 25 W/m² | - |
| 1777549255 | 6.11° C | 98% | 1007.8 hPa | 0 mm | - | 26 W/m² | - |
| 1777548952 | 6.11° C | 98% | 1008.1 hPa | 0 mm | - | 38 W/m² | - |
| 1777548649 | 6.11° C | 98% | 1008.1 hPa | 0 mm | - | 47 W/m² | - |
| 1777548346 | 6.11° C | 98% | 1007.7 hPa | 0 mm | - | 44 W/m² | - |
| 1777548043 | 6.11° C | 98% | 1007.8 hPa | 0 mm | - | 32 W/m² | - |
| 1777547739 | 6.11° C | 98% | 1007.8 hPa | 0 mm | - | 35 W/m² | - |
| 1777547435 | 6.11° C | 98% | 1008 hPa | 0 mm | - | 29 W/m² | - |
| 1777547133 | 6.11° C | 98% | 1008.1 hPa | 0 mm | - | 19 W/m² | - |
| 1777546830 | 6.11° C | 98% | 1008.2 hPa | 1.27 mm | - | 29 W/m² | - |
| 1777546526 | 6.11° C | 98% | 1008.1 hPa | 1.27 mm | - | 27 W/m² | - |
| 1777546223 | 6.11° C | 98% | 1007.7 hPa | 0 mm | - | 25 W/m² | - |
| 1777545921 | 5.56° C | 98% | 1008.2 hPa | 0 mm | - | 24 W/m² | - |
| 1777545617 | 6.11° C | 98% | 1008.2 hPa | 0 mm | - | 16 W/m² | - |
| 1777545314 | 5.56° C | 98% | 1008.3 hPa | 0 mm | - | 9 W/m² | - |
* Rain latest hour (hover to see other rain measurements)
** Current wind speed in m/s (hover to see current wind gust speed)